N91DX -KSAN

Flight info

Callsign N91DX
Flight time N/A
Altitude VFR
Route VFR PW
Aircraft C172/L-VGD/C

Departure

Time N/A
Airport -

Arrival

Time 2026-04-25 06:08
Airport San Diego International Airport (KSAN)
Time Latitude Longitude Altitude Speed Heading
2026-04-25 06:08 32.73309 -117.19674 21 ft 0 kts 141°
2026-04-25 06:14 32.73308 -117.19673 21 ft 0 kts 139°
2026-04-25 06:14 32.73311 -117.19672 21 ft 1 kts 302°
2026-04-25 06:15 32.73312 -117.19675 21 ft 0 kts 304°
2026-04-25 06:15 32.73313 -117.19676 21 ft 0 kts 311°
2026-04-25 06:15 32.73315 -117.19679 21 ft 0 kts 313°
2026-04-25 06:15 32.73316 -117.19681 21 ft 0 kts 313°
2026-04-25 06:16 32.73318 -117.19683 21 ft 0 kts 313°
2026-04-25 06:16 32.73319 -117.19685 21 ft 0 kts 323°
2026-04-25 06:16 32.73336 -117.19701 21 ft 16 kts 314°
2026-04-25 06:16 32.73358 -117.19753 21 ft 4 kts 311°
2026-04-25 06:17 32.73354 -117.19762 21 ft 3 kts 138°
2026-04-25 06:17 32.73386 -117.19765 21 ft 7 kts 306°
2026-04-25 06:17 32.73385 -117.19790 21 ft 0 kts 189°
2026-04-25 06:18 32.73383 -117.19787 21 ft 2 kts 104°
2026-04-25 06:18 32.73377 -117.19778 21 ft 0 kts 226°
2026-04-25 06:18 32.73376 -117.19779 21 ft 0 kts 224°
2026-04-25 06:19 32.73376 -117.19780 21 ft 0 kts 223°
2026-04-25 06:20 32.73382 -117.19772 21 ft 4 kts 225°
2026-04-25 06:20 32.73394 -117.19759 21 ft 5 kts 227°
2026-04-25 06:21 32.73388 -117.19766 21 ft 0 kts 205°
2026-04-25 06:21 32.73380 -117.19772 21 ft 0 kts 243°
2026-04-25 06:21 32.73379 -117.19774 21 ft 0 kts 242°
2026-04-25 06:22 32.73369 -117.19732 21 ft 26 kts 125°
2026-04-25 06:22 32.73341 -117.19645 21 ft 15 kts 346°
2026-04-25 06:22 32.73358 -117.19651 21 ft 0 kts 320°
2026-04-25 06:24 32.73358 -117.19652 21 ft 1 kts 319°
2026-04-25 06:24 32.73397 -117.19569 21 ft 17 kts 103°
2026-04-25 06:24 32.73362 -117.19418 21 ft 17 kts 105°
2026-04-25 06:25 32.73325 -117.19266 21 ft 20 kts 107°
2026-04-25 06:25 32.73290 -117.19113 21 ft 18 kts 104°
2026-04-25 06:25 32.73239 -117.18911 21 ft 40 kts 108°
2026-04-25 06:25 32.73167 -117.18609 21 ft 33 kts 106°
2026-04-25 06:26 32.73111 -117.18380 21 ft 25 kts 105°
2026-04-25 06:26 32.73061 -117.18175 21 ft 31 kts 105°
2026-04-25 06:26 32.72981 -117.17846 21 ft 32 kts 105°
2026-04-25 06:26 32.72971 -117.17693 21 ft 0 kts 68°
2026-04-25 06:27 32.72971 -117.17690 21 ft 0 kts 68°
2026-04-25 06:27 32.72973 -117.17688 21 ft 0 kts 68°
2026-04-25 06:27 32.72973 -117.17685 21 ft 0 kts 68°
2026-04-25 06:27 32.72975 -117.17680 21 ft 4 kts 66°
2026-04-25 06:28 32.73000 -117.17667 21 ft 7 kts 110°
2026-04-25 06:28 32.73064 -117.17779 21 ft 38 kts 285°
2026-04-25 06:28 32.73169 -117.18213 21 ft 67 kts 288°
2026-04-25 06:28 32.73318 -117.18833 145 ft 82 kts 285°
2026-04-25 06:29 32.73473 -117.19523 273 ft 91 kts 284°
2026-04-25 06:29 32.73679 -117.20260 382 ft 98 kts 288°
2026-04-25 06:29 32.73879 -117.20985 630 ft 87 kts 286°
2026-04-25 06:29 32.74147 -117.21568 851 ft 86 kts 321°
2026-04-25 06:30 32.74732 -117.21643 916 ft 92 kts 38°
2026-04-25 06:30 32.74778 -117.20967 987 ft 93 kts 114°
2026-04-25 06:30 32.74518 -117.20310 1230 ft 89 kts 115°
2026-04-25 06:30 32.74224 -117.19617 1445 ft 91 kts 118°
2026-04-25 06:31 32.73899 -117.18939 1619 ft 98 kts 114°
2026-04-25 06:31 32.73587 -117.18120 1636 ft 113 kts 110°
2026-04-25 06:31 32.73337 -117.17262 1819 ft 109 kts 120°
2026-04-25 06:31 32.72683 -117.17088 1953 ft 118 kts 217°
2026-04-25 06:32 32.72692 -117.18084 1908 ft 131 kts 282°
2026-04-25 06:32 32.72832 -117.19172 1738 ft 127 kts 279°
2026-04-25 06:32 32.73032 -117.20192 1487 ft 131 kts 287°
2026-04-25 06:32 32.73367 -117.21171 1223 ft 115 kts 303°
2026-04-25 06:33 32.73954 -117.21408 1139 ft 87 kts 25°
2026-04-25 06:33 32.74339 -117.20882 1086 ft 95 kts 68°
2026-04-25 06:33 32.74434 -117.19981 790 ft 125 kts 101°
2026-04-25 06:33 32.74103 -117.19132 584 ft 101 kts 122°
2026-04-25 06:34 32.73739 -117.18436 537 ft 108 kts 121°
2026-04-25 06:34 32.73415 -117.17620 574 ft 108 kts 111°
2026-04-25 06:34 32.73012 -117.17118 585 ft 85 kts 204°
2026-04-25 06:34 32.73047 -117.17799 235 ft 104 kts 290°
2026-04-25 06:35 32.73247 -117.18533 43 ft 79 kts 288°
2026-04-25 06:35 32.73376 -117.19065 21 ft 56 kts 287°
2026-04-25 06:35 32.73450 -117.19407 21 ft 21 kts 249°
2026-04-25 06:35 32.73416 -117.19529 21 ft 0 kts 253°